ALTAIR (RS65S)

Last updated on Mon Sep 21 2026 00:03:15 GMT+0000 (Coordinated Universal Time)

1 61779U 24199AW 26263.56822275 .00005855 00000+0 15549-3 0 9990 2 61779 97.2871 132.3220 0011170 330.6527 29.4090 15.38605287151775
UTC large
Height (km)
Speed (km/s)
/
Latitude / Longitude
Inclination (degrees)
Orbital Period (minutes)
Azimuth
Elevation
Range (km)
Doppler Factor

Next 0 passes for location: London (51.5072 / 0.1276)

No passes found over London.
ALTAIR (RS65S)